sat.trackr.live / text

‹ back to catalog

STARLINK-5941

NORAD 56013 · 2023-042AD

PAYLOAD ACTIVE UNKNOWN

§ Identity

Operator
Country
US
Launch date
2023-03-24
Launch site
AFETR
Launch vehicle
Mass (kg)
RCS (m²)

Purposes: comms

External: N2YO · Heavens-Above · Gunter

§ Orbital elements

Epoch: 2026-09-20T15:32:08.566368Z

Period
94.27 min
Inclination
43.0037°
Eccentricity
0.0002047
Mean motion
15.27577091 rev/d
Perigee alt
481.7 km
Apogee alt
484.5 km
Semi-major
6,861.2 km
B*
3.5537e-5
RAAN
38.7508°
Arg perigee
269.5024°
Mean anomaly
90.5593°
Rev number
19,268

§ Raw data

STARLINK-59411 56013U 23042AD  26263.64732137  .00000715  00000+0  35537-4 0  99972 56013  43.0037  38.7508 0002047 269.5024  90.5593 15.27577091192687

JSON: /api/v1/satellites/56013 · /tle

For live sub-satellite position, see the globe view (requires WebGL).

§ Visibility from observer

Set your observer location to see the next 7 days of passes ≥ 10°. The values pass through the URL so the page stays shareable.

No JS? Fill the form by hand. The geolocation button needs JavaScript.